Regional Weather Roundup
Issued by NWS Goodland, KS

Home | Current Version | Previous Version | Text Only | Print | Product List | Glossary On
Versions: 1 2 3 4 5 6 7 8 9 10 11 12 13 14 15 16 17 18 19 20 21 22 23 24 25 26 27 28 29 30 31 32 33 34 35 36 37 38 39 40 41 42 43 44 45 46 47 48 49 50
000
ASUS43 KGLD 201008
RWRGLD

GOODLAND FORECAST AREA HOURLY WEATHER ROUNDUP
NATIONAL WEATHER SERVICE GOODLAND KS
400 AM MDT MON OCT 20 2014

...OFFICIAL OBSERVATIONS...

CITY           SKY/WX    TMP DP  RH WIND       PRES   REMARKS
GOODLAND KS    CLEAR     42  39  89 W6        30.13S
HILL CITY KS   CLEAR     44  41  89 W3        30.06S
IMPERIAL NEB   CLEAR     40  33  76 CALM      30.11F
MCCOOK NEB     CLEAR     40  37  89 SW7       30.09S
AKRON CO       CLEAR     47  39  74 SW8       30.14F
BURLINGTON CO  CLEAR     40  36  86 NW5       30.13S
LIMON CO       CLEAR     37  35  92 N5        30.18F
$$

...UNOFFICIAL OBSERVATIONS...

CITY           SKY/WX    TMP DP  RH WIND       PRES   REMARKS
COLBY KS       CLEAR     43  43 100 NW12      30.10S
GOVE KS          N/A     44  32  63 MISG        N/A
NORTON KS      CLEAR     39  36  87 W6        30.06S
SHARON SPRINGS   N/A     44  41  89 CALM        N/A
TRENTON NEB      N/A     44  32  63 N9          N/A
KIT CARSON CO    N/A     47  41  79 CALM        N/A
YUMA CO          N/A     36  30  80 W5          N/A
$$


USA.gov is the U.S. government's official web portal to all federal, state and local government web resources and services.